Change the Weather History Date:

Monday, September 16, 2013

  Actual Average Record
Temperature  
Mean Temperature 75 °F -  
Max Temperature 87 °F 87 °F 100 °F (1997)
Min Temperature 64 °F 60 °F 49 °F (1984)
Cooling Degree Days 10    
Growing Degree Days 25 (Base 50)    
Moisture  
Dew Point 61 °F    
Average Humidity 68    
Maximum Humidity 93    
Minimum Humidity 34    
Precipitation  
Precipitation 0.33 in - - ()
Sea Level Pressure  
Sea Level Pressure 29.99 in    
Wind  
Wind Speed 6 mph (SE)    
Max Wind Speed 14 mph    
Max Gust Speed 21 mph    
Visibility 10 miles    
Events Rain , Thunderstorm    
Averages and records for this station are not official NWS values.
T = Trace of Precipitation, MM = Missing Value Source: NWS Daily Summary

Daily Weather History Graph

Daily Weather History Graph

Search for Another Location

Airport or City:

Trip Planner

Search our weather history database for the weather conditions in past years. The results will help you decide how hot, cold, wet, or windy it might be!

Date:

Astronomy

Sep. 16, 2013 Rise Set
Actual Time 6:41 AM MDT 7:01 PM MDT
Civil Twilight 6:17 AM MDT 7:25 PM MDT
Nautical Twilight 5:48 AM MDT 7:54 PM MDT
Astronomical Twilight 5:19 AM MDT 8:23 PM MDT
Moon 5:05 PM MDT (9/16) 3:38 AM MDT (9/16)
Length of Visible Light 13h 08m
Length of Day
12h 19m
Waxing Gibbous, 90% of the Moon is Illuminated
Sep 16
Waxing Gibbous
Sep 19
Full
Sep 26
Last Quarter
Oct 4
New
Oct 11
First Quarter

Hourly Weather History & Observations

Time (MDT) Temp. Heat Index Dew Point Humidity Pressure Visibility Wind Dir Wind Speed Gust Speed Precip Events Conditions
12:53 AM 68.0 °F - 63.0 °F 84% 29.93 in 10.0 mi WNW 5.8 mph - N/A   Clear
1:53 AM 66.9 °F - 62.1 °F 84% 29.94 in 10.0 mi NNW 4.6 mph - N/A   Clear
2:53 AM 66.9 °F - 62.1 °F 84% 29.93 in 10.0 mi NW 3.5 mph - N/A   Clear
3:53 AM 66.9 °F - 62.1 °F 84% 29.94 in 10.0 mi NW 5.8 mph - N/A   Clear
4:53 AM 66.9 °F - 61.0 °F 81% 29.95 in 10.0 mi NW 5.8 mph - N/A   Clear
5:53 AM 66.0 °F - 61.0 °F 84% 29.98 in 10.0 mi NW 5.8 mph - N/A   Clear
6:53 AM 64.0 °F - 61.0 °F 90% 30.01 in 10.0 mi WNW 4.6 mph - N/A   Clear
7:53 AM 68.0 °F - 61.0 °F 78% 30.02 in 10.0 mi WNW 4.6 mph - N/A   Clear
8:53 AM 72.0 °F - 62.1 °F 71% 30.02 in 10.0 mi Calm Calm - N/A   Clear
9:53 AM 75.0 °F - 62.1 °F 64% 30.03 in 10.0 mi SE 3.5 mph - N/A   Clear
10:53 AM 75.9 °F - 62.1 °F 62% 30.04 in 10.0 mi Variable 4.6 mph - N/A   Partly Cloudy
11:53 AM 81.0 °F 82.2 °F 63.0 °F 54% 30.01 in 10.0 mi South 5.8 mph - N/A   Partly Cloudy
12:53 PM 82.9 °F 83.3 °F 61.0 °F 47% 29.99 in 10.0 mi SSE 10.4 mph 17.3 mph N/A   Scattered Clouds
1:53 PM 84.0 °F 84.0 °F 60.1 °F 44% 29.96 in 10.0 mi SSW 6.9 mph - N/A   Mostly Cloudy
2:53 PM 84.9 °F 83.3 °F 54.0 °F 34% 29.93 in 10.0 mi SE 8.1 mph - N/A   Mostly Cloudy
3:53 PM 84.9 °F 83.9 °F 57.0 °F 38% 29.90 in 10.0 mi SSE 12.7 mph - N/A   Mostly Cloudy
4:53 PM 86.0 °F 84.9 °F 57.0 °F 37% 29.89 in 10.0 mi SE 9.2 mph - N/A   Scattered Clouds
5:53 PM 81.0 °F 81.7 °F 61.0 °F 50% 29.90 in 10.0 mi SSE 6.9 mph - 0.00 in   Overcast
6:53 PM 79.0 °F - 61.0 °F 54% 29.92 in 10.0 mi South 8.1 mph - 0.00 in   Mostly Cloudy
7:17 PM 78.8 °F - 60.8 °F 54% 30.07 in 10.0 mi SSE 13.8 mph 20.7 mph N/A Thunderstorm Mostly Cloudy
7:32 PM 78.8 °F - 57.2 °F 47% 30.07 in 10.0 mi SSE 5.8 mph - N/A   Mostly Cloudy
7:53 PM 75.9 °F - 62.1 °F 62% 29.94 in 10.0 mi South 4.6 mph - N/A   Mostly Cloudy
8:46 PM 73.4 °F - 64.4 °F 73% 30.13 in 10.0 mi ENE 9.2 mph - 0.00 in Rain , Thunderstorm Light Rain
8:53 PM 72.0 °F - 64.0 °F 76% 29.99 in 10.0 mi East 10.4 mph - 0.00 in Thunderstorm Overcast
9:53 PM 68.0 °F - 62.1 °F 81% 30.00 in 10.0 mi ENE 4.6 mph - 0.15 in Rain , Thunderstorm Light Rain
10:01 PM 68.0 °F - 62.6 °F 83% 30.14 in 10.0 mi East 5.8 mph - 0.01 in Rain Light Rain
10:53 PM 68.0 °F - 64.9 °F 90% 30.02 in 10.0 mi SE 8.1 mph - 0.03 in Thunderstorm Overcast
11:09 PM 68.0 °F - 64.4 °F 88% 30.17 in 10.0 mi ESE 10.4 mph - N/A   Overcast
11:53 PM 66.9 °F - 64.9 °F 93% 30.02 in 10.0 mi East 8.1 mph - 0.15 in Rain Rain